Volver al catálogo

STARLINK-6111

ActivoComunicacionesVLEO
NORAD 57102·PAYLOAD·🇺🇸 United States

Lanzado Jun 23, 2023 desde Cape Canaveral Space Force Station

Loading…

Próximos Pases (próximas 24 horas)

TLE

ActualizadoSource: CelesTrak SupGP

Época: Sep 15, 2026, 02:33 UTC

1 57102C 23090B   26258.10673611  .00010333  00000+0  37429-3 0  2582
2 57102  43.0010 292.0026 0000867 265.7385 299.1339 15.27571294    13

Sigue STARLINK-6111 en tiempo real con AllMySat

Download on the App Store